275  
NZUS01 KOTX 230325  
RWROTX  
 
EASTERN WASHINGTON/NORTHERN IDAHO ROUNDUP  
NATIONAL WEATHER SERVICE, SPOKANE WA  
800 PM PDT SUN APR 22 2018  
 
NOTE: "FAIR" INDICATED FEW OR NO CLOUDS BELOW 12,000 FEET WITH NO  
SIGNIFICANT WEATHER AND/OR S TO VISIBILITY
.  
   
..NORTHEAST WASHINGTON AND NORTHERN IDAHO PANHANDLE
 
 
 
CITY SKY/WX TMP DP RH WIND PRES REMARKS
 
SPOKANE INTL PTCLDY 52 20 28 NW5 30.21R  
SPOKANE DOWNTO PTCLDY 49 27 42 N3 30.21R  
DEER PARK PTCLDY 50 26 39 CALM 30.21R  
SANDPOINT PTCLDY 46 28 49 N7 30.22R  
BONNERS FERRY CLOUDY 45 27 49 N6 30.22R  
   
..SOUTHEAST WASHINGTON AND SOUTHERN IDAHO PANHANDLE
 
 
 
CITY SKY/WX TMP DP RH WIND PRES REMARKS
 
WALLA WALLA CLEAR 56 29 35 W3 30.23R  
PULLMAN/MOSCOW CLEAR 46 28 49 W5 30.22R  
LEWISTON CLEAR 54 26 34 W3 30.21R  
LOWELL N/A 47 37 68 CALM 30.19R  
GRANGEVILLE FAIR 41 30 65 CALM 30.19S  
   
..COLUMBIA BASIN
 
 
 
CITY SKY/WX TMP DP RH WIND PRES REMARKS
 
EPHRATA CLEAR 54 22 28 N7 30.22S  
MOSES LAKE CLEAR 53 23 31 NW7 30.23R  
PASCO CLEAR 59 28 30 CALM 30.23S  
RICHLAND CLEAR 52 27 37 CALM 30.24R  
HERMISTON N/A 55 32 41 E5 30.22S  
PENDLETON CLEAR 50 27 40 NE5 30.23R  
   
..EAST SLOPES CASCADES
 
 
 
CITY SKY/WX TMP DP RH WIND PRES REMARKS
 
THE DALLES CLEAR 59 33 37 NE7 30.21S  
YAKIMA CLEAR 57 25 29 W5 30.23S  
ELLENSBURG CLEAR 56 26 31 CALM 30.23R  
WENATCHEE CLEAR 56 19 23 CALM 30.22R  
WINTHROP CLOUDY 53 21 28 N3 30.24R  
OMAK CLEAR 50 25 37 N9 30.24R  
SUNNYSIDE CLEAR 53 28 38 N5 30.24R  
   
..SOUTHERN BRITISH COLUMBIA
 
 
 
CITY SKY/WX TMP DP RH WIND PRES REMARKS
 
PENTICTON CLEAR 50 28 43 N7 30.28R  
CASTLEGAR PTCLDY 52 19 28 NE5 30.25R  
CRANBROOK MOCLDY 46 23 39 W5 30.22R  
OSOYOOS N/A 55 23 28 NW6 N/A  
CRESTON N/A 48 21 34 NW9 N/A  
   
..WESTERN MONTANA
 
 
 
CITY SKY/WX TMP DP RH WIND PRES REMARKS
 
KALISPELL MOCLDY 49 22 34 CALM 30.17R  
MISSOULA PTCLDY 48 21 34 NW7 30.13R  
   
..NEIGHBORING CITIES
 
 
 
CITY SKY/WX TMP DP RH WIND PRES REMARKS
 
SEATTLE CLEAR 53 38 56 N8 30.31S  
PORTLAND CLEAR 59 35 40 NW14 30.23S  
BOISE PTCLDY 58 23 26 NW17 30.00F  
GREAT FALLS CLOUDY 46 21 37 NE12 30.17R  
CALGARY PTCLDY 41 18 38 SW6 30.23R  
 
CLICK HERE TO GO TO PREVIOUS BULLETINS.

The Nexlab WA Page
The Nexlab ID Page Main Text Page